Philip, SD

12:27 AM MST on December 18, 2017 (GMT -0700)
Philip

Weather History for KPHP - February, 2013

Change the Weather History Date:

Sunday, February 24, 2013

  Actual Average Record
Temperature  
Mean Temperature 30 °F 28 °F  
Max Temperature 37 °F 41 °F 66 °F (2009)
Min Temperature 22 °F 15 °F -17 °F (1993)
Degree Days  
Heating Degree Days 35 37  
Month to date heating degree days 857 955  
Since 1 July heating degree days 4892 5220  
Cooling Degree Days 0 0  
Month to date cooling degree days 0 0  
Year to date cooling degree days 0 0  
Moisture  
Dew Point 27 °F    
Average Humidity 86    
Maximum Humidity 96    
Minimum Humidity 75    
Precipitation  
Precipitation 0.01 in 0.03 in 0.30 in (1987)
Month to date precipitation 0.29 0.36  
Year to date precipitation 0.82 0.66  
Sea Level Pressure  
Sea Level Pressure 30.03 in    
Wind  
Wind Speed 8 mph (NW)    
Max Wind Speed 21 mph    
Max Gust Speed 24 mph    
Visibility 9 miles    
Events Snow    
T = Trace of Precipitation, MM = Missing Value Source: NWS Daily Summary

Daily Weather History Graph

Daily Weather History Graph

Search for Another Location

Airport or City:

Trip Planner

Search our weather history database for the weather conditions in past years. The results will help you decide how hot, cold, wet, or windy it might be!

Date:

Astronomy

Feb. 24, 2013 Rise Set
Actual Time 6:31 AM MST 5:28 PM MST
Civil Twilight 6:02 AM MST 5:57 PM MST
Nautical Twilight 5:28 AM MST 6:31 PM MST
Astronomical Twilight 4:55 AM MST 7:04 PM MST
Moon 4:41 PM MST (2/24) 5:30 AM MST (2/24)
Length of Visible Light 11h 55m
Length of Day
10h 57m
Waxing Gibbous, 99% of the Moon is Illuminated
Feb 24
Waxing Gibbous
Feb 25
Full
Mar 4
Last Quarter
Mar 11
New
Mar 19
First Quarter

Hourly Weather History & Observations

Time (MST) Temp. Windchill Dew Point Humidity Pressure Visibility Wind Dir Wind Speed Gust Speed Precip Events Conditions
12:55 AM 24.1 °F - 21.9 °F 91% 29.88 in 10.0 mi Calm Calm - N/A   Overcast
1:55 AM 24.1 °F - 21.9 °F 91% 29.89 in 10.0 mi Calm Calm - N/A   Overcast
2:55 AM 25.0 °F - 23.0 °F 92% 29.90 in 10.0 mi Calm Calm - N/A   Overcast
3:55 AM 26.1 °F - 23.0 °F 88% 29.92 in 10.0 mi Calm Calm - N/A   Overcast
4:55 AM 27.0 °F - 25.0 °F 92% 29.95 in 10.0 mi Calm Calm - N/A   Overcast
5:55 AM 28.9 °F 25.2 °F 26.1 °F 89% 29.97 in 10.0 mi WNW 3.5 mph - N/A   Overcast
6:55 AM 32.0 °F 22.5 °F 30.0 °F 92% 29.98 in 8.0 mi NNW 12.7 mph - 0.01 in Snow Light Snow
7:55 AM 33.1 °F 24.4 °F 30.0 °F 89% 30.01 in 10.0 mi NNW 11.5 mph - 0.00 in   Overcast
8:55 AM 34.0 °F 25.0 °F 30.0 °F 85% 30.03 in 10.0 mi NW 12.7 mph - N/A   Overcast
9:55 AM 35.1 °F 25.5 °F 30.0 °F 82% 30.05 in 10.0 mi NNW 15.0 mph - N/A   Overcast
10:12 AM 35.6 °F 26.2 °F 30.2 °F 81% 30.00 in 10.0 mi NNW 15.0 mph - N/A   Mostly Cloudy
10:53 AM 35.6 °F 26.6 °F 30.2 °F 81% 30.00 in 10.0 mi NW 13.8 mph 23.0 mph N/A   Overcast
10:55 AM 36.0 °F 26.0 °F 30.9 °F 82% 30.06 in 10.0 mi NW 17.3 mph - N/A   Overcast
11:22 AM 35.6 °F 25.5 °F 30.2 °F 81% 30.00 in 10.0 mi NW 17.3 mph - N/A   Overcast
11:55 AM 36.0 °F 26.3 °F 30.0 °F 79% 30.06 in 10.0 mi NW 16.1 mph - N/A   Overcast
12:55 PM 36.0 °F 26.3 °F 30.0 °F 79% 30.06 in 4.0 mi NNW 16.1 mph - 0.00 in Snow Light Snow
1:52 PM 35.6 °F 26.2 °F 30.2 °F 81% 29.99 in 7.0 mi NW 15.0 mph - 0.00 in   Overcast
1:55 PM 36.0 °F 26.3 °F 30.0 °F 79% 30.05 in 8.0 mi NNW 16.1 mph - 0.00 in   Overcast
2:35 PM 35.6 °F 26.2 °F 30.2 °F 81% 29.99 in 4.0 mi NW 15.0 mph - 0.00 in Snow Light Snow
2:52 PM 37.4 °F 28.5 °F 30.2 °F 75% 30.00 in 6.0 mi NW 15.0 mph - 0.00 in Snow Light Snow
2:55 PM 36.0 °F 27.5 °F 30.0 °F 79% 30.06 in 6.0 mi NW 12.7 mph - 0.00 in Snow Light Snow
3:55 PM 37.0 °F 29.8 °F 28.0 °F 70% 30.06 in 10.0 mi NNW 10.4 mph - 0.00 in   Overcast
4:50 PM 35.6 °F 29.9 °F 28.4 °F 75% 30.02 in 10.0 mi NNW 6.9 mph - N/A   Overcast
4:55 PM 36.0 °F 30.3 °F 28.9 °F 76% 30.07 in 10.0 mi NNW 6.9 mph - N/A   Overcast
5:55 PM 34.0 °F 29.8 °F 28.0 °F 79% 30.09 in 10.0 mi North 4.6 mph - N/A   Overcast
6:55 PM 33.1 °F 26.9 °F 27.0 °F 78% 30.12 in 10.0 mi North 6.9 mph - N/A   Mostly Cloudy
7:55 PM 30.9 °F 26.2 °F 26.1 °F 82% 30.13 in 10.0 mi NW 4.6 mph - N/A   Mostly Cloudy
8:55 PM 28.9 °F 22.8 °F 25.0 °F 85% 30.13 in 10.0 mi WNW 5.8 mph - N/A   Scattered Clouds
9:55 PM 24.1 °F 17.0 °F 21.9 °F 91% 30.15 in 10.0 mi West 5.8 mph - N/A   Clear
10:55 PM 23.0 °F 15.8 °F 21.0 °F 92% 30.15 in 10.0 mi West 5.8 mph - N/A   Clear
11:55 PM 21.9 °F 12.5 °F 19.0 °F 89% 30.15 in 10.0 mi West 8.1 mph - N/A   Clear